FW4110 Weather Reports


Display with metric or nautical units.
time (UTC)temp
F
wind
direction
speed
MPH
gust
MPH
rain 1hr
in
rain 24hr
in
rain mn
in
humidity
%
barometer
mb
20260507194550 66 350 2.0 11.0 0.00 0.00 0.00 55 1017.7
20260507193047 66 261 2.0 7.0 0.00 0.00 0.00 55 1017.8
20260507191546 66 10 5.0 12.0 0.00 0.00 0.00 56 1017.9
20260507190044 66 308 0.0 11.0 0.00 0.00 0.00 57 1018.0
20260507184544 66 358 0.0 9.0 0.00 0.00 0.00 57 1018.1
20260507183048 66 356 1.0 9.0 0.00 0.00 0.00 54 1018.4
20260507181542 65 282 1.0 8.0 0.00 0.00 0.00 55 1018.4
20260507180045 65 259 3.0 9.0 0.00 0.00 0.00 56 1018.7
20260507174535 64 9 3.0 10.0 0.00 0.00 0.00 55 1019.0
20260507173034 64 232 1.0 11.0 0.00 0.00 0.00 56 1019.1
20260507171531 63 237 1.0 8.0 0.00 0.00 0.00 58 1019.1
20260507170028 63 107 3.0 9.0 0.00 0.00 0.00 59 1019.4
20260507164528 63 206 2.0 10.0 0.00 0.00 0.00 59 1019.9
20260507163024 63 286 3.0 8.0 0.00 0.00 0.00 59 1020.0
20260507161532 62 275 2.0 8.0 0.00 0.00 0.00 59 1020.1
20260507160036 61 341 2.0 10.0 0.00 0.00 0.00 59 1020.4
20260507154519 61 261 3.0 8.0 0.00 0.00 0.00 60 1020.3
20260507153016 60 327 2.0 8.0 0.00 0.00 0.00 65 1020.6
20260507151515 59 272 1.0 6.0 0.00 0.00 0.00 67 1020.4
20260507150015 59 314 3.0 7.0 0.00 0.00 0.00 69 1020.7
20260507144516 58 310 2.0 6.0 0.00 0.00 0.00 69 1020.9
20260507143011 57 153 1.0 6.0 0.00 0.00 0.00 72 1020.9
20260507141513 56 235 1.0 4.0 0.00 0.00 0.00 48 1021.0
20260507140108 55 313 0.0 2.0 0.00 0.00 0.00 55 1021.0
20260507134555 53 261 0.0 4.0 0.00 0.00 0.00 60 1021.1
20260507133055 51 258 0.0 2.0 0.00 0.00 0.00 60 1020.9
20260507131549 50 223 0.0 0.0 0.00 0.00 0.00 72 1020.9
20260507130056 47 266 0.0 0.0 0.00 0.00 0.00 78 1021.0
20260507124556 44 308 0.0 2.0 0.00 0.00 0.00 85 1021.1
20260507123036 42 230 0.0 1.0 0.00 0.00 0.00 88 1021.0
20260507121536 40 45 0.0 0.0 0.00 0.00 0.00 87 1021.0
20260507120030 0 0.0 0.0 0.00 0.00 0.00 1020.8
20260507114529 0 0.0 0.0 0.00 0.00 0.00 1020.6
20260507113023 0 0.0 0.0 0.00 0.00 0.00 1020.5
20260507111518 0 45 0.0 0.0 0.00 0.00 0.00 1020.4
20260507110025 37 46 0.0 0.0 0.00 0.00 0.00 85 1020.4
20260507104514 38 46 0.0 0.0 0.00 0.02 0.00 85 1020.3
20260507103013 38 46 0.0 0.0 0.00 0.02 0.00 85 1020.1
20260507101511 39 45 0.0 0.0 0.00 0.02 0.00 84 1020.0
20260507100016 39 46 0.0 0.0 0.00 0.02 0.00 83 1020.0
20260507094508 39 45 0.0 0.0 0.00 0.04 0.00 83 1020.0
20260507093006 39 46 0.0 0.0 0.00 0.04 0.00 80 1019.8
20260507091506 39 46 0.0 0.0 0.00 0.04 0.00 69 1019.8
20260507090006 39 46 0.0 0.0 0.00 0.04 0.00 66 1020.0
20260507084600 40 46 0.0 0.0 0.00 0.06 0.00 64 1020.2
20260507083058 40 45 0.0 0.0 0.00 0.06 0.00 64 1020.3
20260507081558 40 45 0.0 0.0 0.00 0.06 0.00 61 1020.5
20260507080101 40 45 0.0 0.0 0.00 0.06 0.00 60 1020.7
20260507074607 41 46 0.0 0.0 0.00 0.07 0.00 59 1020.5
20260507073053 41 46 0.0 0.0 0.00 0.07 0.00 59 1020.4
20260507071554 41 45 0.0 0.0 0.00 0.07 0.00 59 1020.2
20260507070106 41 46 0.0 0.0 0.00 0.07 0.00 57 1020.3
20260507064550 41 46 0.0 0.0 0.00 0.08 0.00 56 1020.4
20260507063056 41 46 0.0 0.0 0.00 0.08 0.00 65 1020.6
20260507061549 41 46 0.0 0.0 0.00 0.08 0.00 70 1020.6
20260507060046 41 46 0.0 0.0 0.00 0.08 0.00 75 1020.6
20260507054544 42 46 0.0 0.0 0.00 0.15 0.00 76 1020.4
20260507053043 42 46 0.0 0.0 0.00 0.15 0.00 76 1020.5
20260507051540 42 46 0.0 0.0 0.00 0.15 0.00 77 1020.4
20260507050038 42 46 0.0 0.0 0.00 0.15 0.00 81 1020.3
20260507044535 42 46 0.0 0.0 0.00 0.26 0.00 82 1020.2
20260507043037 43 46 0.0 0.0 0.00 0.26 0.00 82 1020.1
20260507041533 43 46 0.0 0.0 0.00 0.26 0.00 83 1020.0
20260507040033 44 45 0.0 0.0 0.00 0.26 0.00 84 1020.2
20260507034535 44 46 0.0 0.0 0.00 0.30 0.00 85 1020.2
20260507033028 44 46 0.0 0.0 0.00 0.30 0.00 86 1020.3
20260507031526 45 46 0.0 0.0 0.00 0.30 0.00 86 1020.4
20260507030023 46 45 0.0 0.0 0.00 0.30 0.00 86 1020.3
20260507024525 46 46 0.0 0.0 0.00 0.32 0.00 86 1020.2
20260507023024 47 46 0.0 0.0 0.00 0.32 0.00 86 1020.1
20260507021520 47 45 0.0 0.0 0.00 0.32 0.00 85 1020.0
20260507020030 48 46 0.0 0.0 0.00 0.32 0.00 85 1019.8
20260507014519 48 46 0.0 0.0 0.00 0.35 0.00 84 1019.6
20260507013038 49 46 0.0 0.0 0.00 0.35 0.00 84 1019.3
20260507011518 51 46 0.0 0.0 0.00 0.35 0.00 81 1019.3
20260507010017 53 46 0.0 0.0 0.00 0.35 0.00 80 1019.0
20260507004517 56 46 0.0 0.0 0.00 0.35 0.00 75 1018.6
20260507003015 58 47 0.0 2.0 0.00 0.35 0.00 71 1018.6
20260507001516 59 1 0.0 5.0 0.00 0.35 0.00 66 1018.7
20260507000017 60 351 2.0 6.0 0.00 0.35 0.00 66 1018.8
20260506234520 59 355 2.0 6.0 0.00 0.35 0.00 66 1018.6
20260506233014 59 35 4.0 6.0 0.00 0.35 0.00 64 1018.6
20260506231514 60 343 3.0 9.0 0.00 0.35 0.00 63 1018.7
20260506230011 61 342 7.0 11.0 0.00 0.35 0.00 63 1018.6
20260506224511 60 356 5.0 9.0 0.00 0.35 0.00 62 1018.6
20260506223011 61 326 7.0 12.0 0.00 0.35 0.00 61 1018.7
20260506221509 61 23 2.0 9.0 0.00 0.35 0.00 61 1018.7
20260506220017 61 46 1.0 8.0 0.00 0.35 0.00 60 1018.7
20260506214509 62 359 6.0 14.0 0.00 0.35 0.00 59 1018.8
20260506213006 62 28 4.0 9.0 0.00 0.35 0.00 61 1018.9
20260506211508 60 1 3.0 7.0 0.00 0.35 0.00 60 1019.0
20260506210010 60 67 3.0 10.0 0.00 0.35 0.00 65 1019.1
20260506204501 60 14 2.0 9.0 0.00 0.35 0.00 66 1019.0
20260506203100 60 21 4.0 11.0 0.00 0.35 0.00 65 1019.4
20260506201604 60 8 4.0 9.0 0.00 0.35 0.00 65 1019.5
20260506200058 59 30 5.0 12.0 0.00 0.35 0.00 66 1019.8